Voltar ao catálogo

DELTA 1 DEB

AtivoLEO
NORAD 720·DEBRIS·🇺🇸 United States

Lançado Dec 21, 1963 de Vandenberg Space Force Base

Loading…

Próximas Passagens (próximas 24 horas)

TLE

AtualizadoSource: Space-Track

Época: Sep 14, 2026, 03:12 UTC

1 00720U 63054C   26257.13366182  .00000264  00000-0  10294-3 0  9990
2 00720  58.4712 171.3568 0107473 165.4836 194.9322 14.50763629294394

Acompanhe DELTA 1 DEB em tempo real com AllMySat

Download on the App Store